Location: Three Oaks Observatory
(31.1535°N, 83.5955°W)
Time: 01:55:42
(UTC-05:00)

FALCONSAT 3 - Pass Details

Date: 29 October 2019
Orbit: 454 x 457 km, 35.4° (Epoch: 12 November)

Event Time Altitude Azimuth Distance (km) Brightness Sun altitude
Exits shadow 05:39:54 16° 138° (SE) 1,240 ? -27.8°
Drops below altitude 10° 05:40:48 10° 133° (SE) 1,575 ? -27.6°
Sets 05:43:00 0° 126° (SE) 2,445 ? -27.1°
